[[{"header":{"parameterUnit":"m.s-1","parameterCategory":1,"la1":30.2991,"la2":30.254,"lo1":-89.0895,"lo2":-89.0444,"dy":0.0017,"dx":0.0017,"nx":28,"ny":28,"refTime":"2024-11-28T03:00:00:Z","depth":0,"parameterNumber":2,"parameterNumberName":"U-component_of_WINDS"},"data":[0,0,0,0,0,0,0,0,0,0,0,0,0,0,0,0,0,0,0,0,0,0,0,0,0,0,0,0,0,0,0,0,0,0,0,0,0,0,0,0,0,0,0,0,0,0,0,0,0,0,0,0,0,0,0,0,0,0,1.5342,1.5344,0,1.5532,1.5534,1.5536,1.5592,1.5591,1.559,1.5589,1.5786,1.5792,1.5799,0,0,0,0,0,0,0,0,0,0,0,0,0,1.5033,1.5039,1.5342,1.5344,1.5346,1.5532,1.5534,1.5537,1.5593,1.5591,1.559,1.5589,1.5784,1.5792,1.5799,0,0,0,0,0,0,0,0,0,0,0,0,0,1.519,1.504,1.5341,1.5397,1.5403,1.5531,1.5534,1.5538,1.5593,1.5591,1.559,1.5588,1.5782,1.5791,1.58,1.5887,0,0,1.5828,1.5832,0,0,0,0,0,0,0,0,1.5181,1.5201,1.5386,1.5393,1.5401,1.5537,1.5498,1.5655,1.5593,1.5521,1.5589,1.5588,1.5705,1.572,1.5759,1.5896,1.5905,1.5829,1.5835,1.5839,1.5841,0,0,0,0,0,0,0,1.517,1.5193,1.5417,1.5389,1.5398,1.5414,1.5435,1.5528,1.5619,1.5527,1.5532,1.5553,1.5709,1.575,1.5764,1.5908,1.5829,1.5837,1.5843,1.5847,1.6133,1.6135,0,0,0,0,0,0,1.5149,1.5184,1.5411,1.5423,1.5285,1.5421,1.5444,1.5495,1.5618,1.5635,1.5554,1.5555,1.5735,1.5753,1.5771,1.5886,1.5839,1.5847,1.5853,1.6131,1.6134,1.6136,0,0,0,0,0,0,1.5142,1.5169,1.5403,1.5305,1.5336,1.5428,1.5485,1.5499,1.5541,1.5639,1.5656,1.558,1.5735,1.5758,1.586,1.5894,1.5852,1.586,1.6129,1.6132,1.6135,1.6113,0,0,0,0,0,0,1.5133,1.5166,1.5198,1.5305,1.5341,1.5486,1.5487,1.5504,1.5557,1.5559,1.5667,1.5684,1.5735,1.5845,1.5869,1.5906,1.5867,1.6126,1.613,1.6134,1.6111,1.6115,1.6118,0,0,0,0,0,1.5122,1.5183,1.5199,1.5226,1.5383,1.5488,1.5508,1.5566,1.5559,1.5594,1.5658,1.568,1.5886,1.5855,1.5882,1.5922,1.6124,1.6129,1.6134,1.6109,1.6114,1.6118,0,0,0,0,0,0,1.5077,1.5198,1.5217,1.5314,1.5391,1.5497,1.5542,1.5568,1.5648,1.5648,1.5717,1.5741,1.5838,1.589,1.5854,1.6017,1.6006,1.6016,1.5979,1.5984,1.5987,1.5973,1.5875,0,0,0,0,0,1.5079,1.5152,1.5255,1.5331,1.5368,1.5449,1.5496,1.5535,1.5617,1.5649,1.572,1.58,1.5883,1.5936,1.6018,1.6119,1.6146,1.616,1.6164,1.6166,1.6175,1.6238,1.6247,1.6151,1.6151,1.6151,0,0,1.5082,1.5158,1.52,1.5324,1.5387,1.5465,1.5475,1.5555,1.5615,1.5661,1.5762,1.5817,1.5911,1.6014,1.6063,1.6061,1.6208,1.6172,1.6173,1.6181,1.6244,1.6253,1.6261,1.6154,1.6154,1.6153,0,0,1.5129,1.5192,1.5265,1.5329,1.5426,1.548,1.5497,1.5601,1.564,1.5742,1.5781,1.5854,1.5994,1.6061,1.6113,1.6193,1.6218,1.6217,1.6236,1.6297,1.6305,1.6312,1.6344,1.6355,1.6225,1.6225,1.6225,0,1.5122,1.5239,1.5299,1.5379,1.5435,1.5482,1.5559,1.5619,1.5737,1.5776,1.5771,1.5953,1.6019,1.6141,1.6161,1.62,1.6226,1.6205,1.6298,1.6306,1.6314,1.6346,1.6357,1.6225,1.6225,1.6225,1.6225,0,1.5227,1.5308,1.5356,1.547,1.5531,1.5609,1.5684,1.5739,1.5774,1.583,1.5936,1.6018,1.612,1.6152,1.6185,1.6281,1.6277,1.6284,1.6276,1.6321,1.6353,1.6365,1.6224,1.6224,1.6224,1.6224,0,0,1.5248,1.5399,1.5416,1.5471,1.5583,1.5648,1.5731,1.583,1.5878,1.596,1.6033,1.6154,1.6164,1.6223,1.6266,1.6319,1.6383,1.6321,1.6325,1.6333,1.6499,1.6494,1.6506,1.64,1.6403,1.6405,1.6492,0,1.5312,1.5459,1.5519,1.564,1.5718,1.5767,1.584,1.5919,1.5974,1.6051,1.6113,1.6199,1.6203,1.624,1.6295,1.6363,1.6417,1.6357,1.6473,1.6476,1.6449,1.6522,1.6516,1.6594,1.6504,1.6506,1.6508,0,1.5405,1.5489,1.5617,1.5726,1.5761,1.5825,1.5925,1.5996,1.6088,1.6126,1.6195,1.6236,1.6328,1.6314,1.6444,1.6402,1.6454,1.6495,1.65,1.6514,1.6495,1.6541,1.662,1.6633,1.6527,1.6525,1.6524,0,1.5412,1.5557,1.5654,1.57,1.5827,1.5872,1.5928,1.6018,1.6077,1.6164,1.6204,1.6301,1.6355,1.6431,1.6498,1.6481,1.6625,1.6614,1.6662,1.666,1.669,1.6688,1.6781,1.6719,1.6719,1.6718,1.6718,0,1.5478,1.5555,1.566,1.572,1.5811,1.588,1.5969,1.6028,1.611,1.6185,1.6233,1.6303,1.6387,1.6469,1.6523,1.6626,1.6649,1.6684,1.6698,1.6681,1.6677,1.6717,1.6714,1.6722,1.6721,1.672,1.672,0,1.55,1.5573,1.5683,1.5797,1.5827,1.589,1.5988,1.6051,1.611,1.6205,1.6231,1.6325,1.6425,1.65,1.6628,1.6665,1.6776,1.6789,1.6744,1.6752,1.6796,1.6792,1.692,1.6943,1.6862,1.6863,1.6863,0,1.5538,1.56,1.5721,1.5775,1.5831,1.5916,1.5977,1.605,1.6111,1.6225,1.6275,1.6378,1.6464,1.6622,1.6703,1.6803,1.6821,1.6859,1.6836,1.682,1.6826,1.6823,1.6832,1.6862,1.6863,1.6863,1.6864,0,1.5599,1.5634,1.5718,1.5818,1.5889,1.5971,1.6054,1.6096,1.6184,1.6252,1.6355,1.6422,1.6556,1.6659,1.6769,1.6829,1.6863,1.687,1.6887,1.6872,1.6845,1.6865,1.6756,1.6867,1.6867,1.6866,1.6866,1.6866,1.5634,1.5693,1.5789,1.5884,1.5954,1.6032,1.6097,1.6167,1.6253,1.6367,1.6406,1.6513,1.6611,1.6762,1.6824,1.6912,1.6912,1.6935,1.6942,1.6947,1.6948,1.683,1.6931,1.6931,1.6931,1.6931,1.6931,0,1.57,1.5766,1.5852,1.5968,1.6044,1.6069,1.6163,1.6226,1.632,1.6407,1.6492,1.6614,1.6716,1.6807,1.6914,1.6968,1.6986,1.6994,1.6992,1.7006,1.6939,1.6915,1.6977,1.6977,1.6977,1.6977,1.6977,1.6977,1.5744,1.5847,1.5894,1.6034,1.61,1.6205,1.6258,1.6332,1.6403,1.6536,1.6621,1.668,1.6771,1.6887,1.6983,1.7008,1.7047,1.7051,1.708,1.7016,1.701,1.7005,1.6983,1.7058,1.7058,1.714,1.7141,1.7142]},{"header":{"parameterUnit":"m.s-1","parameterCategory":1,"la1":30.2991,"la2":30.254,"lo1":-89.0895,"lo2":-89.0444,"dy":0.0017,"dx":0.0017,"nx":28,"ny":28,"refTime":"2024-11-28T03:00:00:Z","depth":0,"parameterNumber":3,"parameterNumberName":"V-component_of_WINDS"},"data":[0,0,0,0,0,0,0,0,0,0,0,0,0,0,0,0,0,0,0,0,0,0,0,0,0,0,0,0,0,0,0,0,0,0,0,0,0,0,0,0,0,0,0,0,0,0,0,0,0,0,0,0,0,0,0,0,0,0,-6.0624,-6.0623,0,-6.0458,-6.0456,-6.0454,-6.0402,-6.0403,-6.0404,-6.0404,-6.0212,-6.0207,-6.0201,0,0,0,0,0,0,0,0,0,0,0,0,0,-6.0877,-6.0873,-6.0625,-6.0623,-6.0621,-6.0458,-6.0456,-6.0454,-6.0402,-6.0403,-6.0404,-6.0405,-6.0214,-6.0207,-6.02,0,0,0,0,0,0,0,0,0,0,0,0,0,-6.0744,-6.0872,-6.0625,-6.0576,-6.057,-6.0459,-6.0456,-6.0453,-6.0401,-6.0403,-6.0404,-6.0405,-6.0217,-6.0208,-6.0199,-6.0119,0,0,-6.0172,-6.0168,0,0,0,0,0,0,0,0,-6.0752,-6.0735,-6.0585,-6.0579,-6.0572,-6.0453,-6.0475,-6.034,-6.0401,-6.0465,-6.0404,-6.0406,-6.029,-6.0275,-6.024,-6.011,-6.0102,-6.0171,-6.0166,-6.0162,-6.016,0,0,0,0,0,0,0,-6.0761,-6.0742,-6.0558,-6.0583,-6.0575,-6.0555,-6.0537,-6.0449,-6.0371,-6.0459,-6.0455,-6.0437,-6.0286,-6.0249,-6.0235,-6.0099,-6.0172,-6.0164,-6.0158,-6.0155,-5.9889,-5.9887,0,0,0,0,0,0,-6.0782,-6.075,-6.0563,-6.0553,-6.0668,-6.0549,-6.053,-6.0489,-6.0372,-6.0356,-6.0436,-6.0435,-6.0263,-6.0246,-6.0228,-6.0123,-6.0162,-6.0154,-6.0149,-5.9891,-5.9889,-5.9887,0,0,0,0,0,0,-6.0787,-6.0766,-6.057,-6.065,-6.0624,-6.0544,-6.0498,-6.0485,-6.0448,-6.0355,-6.0339,-6.0414,-6.0264,-6.0241,-6.0147,-6.0116,-6.015,-6.0142,-5.9893,-5.989,-5.9888,-5.9916,0,0,0,0,0,0,-6.0795,-6.0768,-6.0742,-6.0651,-6.062,-6.0498,-6.0497,-6.0481,-6.0435,-6.0433,-6.033,-6.0314,-6.0263,-6.0161,-6.0138,-6.0105,-6.0135,-5.9895,-5.9892,-5.9889,-5.9917,-5.9914,-5.9912,0,0,0,0,0,-6.0804,-6.0752,-6.0741,-6.0718,-6.0587,-6.0497,-6.0478,-6.0427,-6.0433,-6.0402,-6.0343,-6.0317,-6.0125,-6.0151,-6.0126,-6.0089,-5.9897,-5.9893,-5.9889,-5.9918,-5.9915,-5.9912,0,0,0,0,0,0,-6.0835,-6.0739,-6.0725,-6.0644,-6.058,-6.0488,-6.0448,-6.0426,-6.0353,-6.0352,-6.0285,-6.0262,-6.0172,-6.0121,-6.0153,-6.0003,-6.0009,-5.9999,-6.004,-6.0036,-6.0033,-6.0045,-6.0128,0,0,0,0,0,-6.0834,-6.0775,-6.0692,-6.0628,-6.0597,-6.0529,-6.0487,-6.0454,-6.0381,-6.0352,-6.0285,-6.021,-6.0132,-6.0081,-6.0005,-5.991,-5.9883,-5.9872,-5.987,-5.9868,-5.9859,-5.98,-5.9793,-5.9874,-5.9874,-5.9874,0,0,-6.0827,-6.0768,-6.0734,-6.0633,-6.0579,-6.0513,-6.0506,-6.0437,-6.0385,-6.0339,-6.0248,-6.0196,-6.0107,-6.0012,-5.9966,-5.9966,-5.9831,-5.9863,-5.9863,-5.9854,-5.9796,-5.9788,-5.9781,-5.9871,-5.9872,-5.9872,0,0,-6.0782,-6.0734,-6.0674,-6.0622,-6.0543,-6.0498,-6.0484,-6.0396,-6.0361,-6.0271,-6.0234,-6.0168,-6.0036,-5.9974,-5.9924,-5.9856,-5.9827,-5.9832,-5.9817,-5.9761,-5.9754,-5.9748,-5.9719,-5.971,-5.9824,-5.9824,-5.9824,0,-6.0782,-6.0689,-6.0644,-6.0578,-6.0532,-6.0495,-6.0429,-6.0378,-6.0275,-6.0241,-6.0245,-6.0078,-6.0015,-5.9903,-5.9887,-5.985,-5.9826,-5.9842,-5.976,-5.9754,-5.9747,-5.9718,-5.9708,-5.9825,-5.9825,-5.9825,-5.9825,0,-6.0691,-6.0626,-6.0586,-6.0495,-6.0444,-6.0379,-6.0318,-6.0271,-6.0242,-6.0194,-6.0098,-6.0023,-5.9929,-5.99,-5.9868,-5.9782,-5.9784,-5.9775,-5.9778,-5.9741,-5.9712,-5.9701,-5.9827,-5.9826,-5.9826,-5.9826,0,0,-6.0657,-6.0545,-6.0531,-6.0488,-6.0398,-6.0343,-6.0273,-6.0189,-6.0147,-6.0077,-6.0012,-5.9903,-5.9894,-5.9838,-5.9798,-5.975,-5.9694,-5.9745,-5.9742,-5.9735,-5.9588,-5.9593,-5.9581,-5.9677,-5.9675,-5.9673,-5.9594,0,-6.0597,-6.0479,-6.0437,-6.0336,-6.0272,-6.0236,-6.0174,-6.0108,-6.0062,-5.9995,-5.994,-5.9862,-5.9859,-5.9825,-5.9776,-5.9712,-5.9663,-5.9718,-5.9608,-5.9604,-5.9628,-5.9567,-5.9572,-5.9501,-5.9583,-5.9581,-5.958,0,-6.0512,-6.0448,-6.0343,-6.026,-6.0232,-6.0178,-6.0095,-6.0035,-5.9957,-5.9926,-5.9865,-5.9829,-5.9747,-5.9759,-5.964,-5.9678,-5.9631,-5.9592,-5.9588,-5.9572,-5.9587,-5.9544,-5.9477,-5.9465,-5.9562,-5.9564,-5.9565,0,-6.0493,-6.038,-6.0302,-6.0267,-6.0169,-6.0132,-6.0088,-6.0013,-5.9963,-5.9889,-5.9855,-5.9769,-5.9721,-5.9652,-5.9591,-5.9607,-5.9476,-5.9484,-5.9441,-5.9442,-5.9411,-5.9413,-5.9331,-5.9388,-5.9389,-5.9389,-5.9389,0,-6.0428,-6.0364,-6.0292,-6.0244,-6.0169,-6.0118,-6.0043,-5.9995,-5.9929,-5.9864,-5.9826,-5.9765,-5.9691,-5.9618,-5.9569,-5.9475,-5.9454,-5.9421,-5.9408,-5.9422,-5.9426,-5.9386,-5.9387,-5.9386,-5.9387,-5.9387,-5.9388,0,-6.0393,-6.0344,-6.0255,-6.0172,-6.015,-6.0097,-6.0022,-5.9969,-5.9923,-5.9842,-5.9819,-5.9742,-5.9654,-5.9589,-5.9473,-5.944,-5.9338,-5.9326,-5.9366,-5.9359,-5.9317,-5.932,-5.9203,-5.9182,-5.9259,-5.9259,-5.9258,0,-6.0353,-6.0304,-6.0217,-6.0175,-6.0134,-6.0066,-6.0018,-5.9964,-5.9914,-5.9822,-5.9778,-5.969,-5.9616,-5.9476,-5.9404,-5.9314,-5.9296,-5.9262,-5.9282,-5.9297,-5.9289,-5.9292,-5.9283,-5.9257,-5.9257,-5.9256,-5.9256,0,-6.0285,-6.0264,-6.02,-6.0126,-6.0071,-6.0009,-5.9944,-5.991,-5.9844,-5.9788,-5.9702,-5.9645,-5.953,-5.9439,-5.9343,-5.9288,-5.9257,-5.9252,-5.9235,-5.9247,-5.927,-5.9252,-5.9354,-5.9253,-5.9253,-5.9253,-5.9253,-5.9254,-6.0243,-6.0196,-6.0129,-6.0057,-6.0005,-5.9946,-5.9893,-5.9842,-5.9771,-5.9679,-5.965,-5.9559,-5.9477,-5.9345,-5.929,-5.9213,-5.9212,-5.9191,-5.9184,-5.9178,-5.9177,-5.9288,-5.9195,-5.9195,-5.9195,-5.9195,-5.9195,0,-6.0169,-6.0125,-6.0061,-5.9976,-5.9917,-5.9904,-5.9832,-5.9782,-5.9705,-5.9636,-5.9566,-5.9464,-5.9376,-5.93,-5.9206,-5.9158,-5.9141,-5.9135,-5.9135,-5.9121,-5.9185,-5.9206,-5.915,-5.915,-5.915,-5.915,-5.915,-5.915,-6.0124,-6.0044,-6.0014,-5.9905,-5.9859,-5.9776,-5.9736,-5.9678,-5.9623,-5.9514,-5.9444,-5.9398,-5.9322,-5.9223,-5.9139,-5.9118,-5.9082,-5.9078,-5.9053,-5.9112,-5.9118,-5.9123,-5.9142,-5.9073,-5.9072,-5.8994,-5.8994,-5.8993]}]]